• Join FlightAware (Why Join?)
  • Login
  • US Flag 
12:53AM EDT


 

Airport Tracker/Info


-or-


 

Live Flight TrackerFlight Track Log ✈ N53NW ✈ 28-Oct-2013 ✈ KOKC - KDAL

Flight Track Log - Related Links

Times and Time Zones

All times are in EDT time to prevent confusion due to time zone crossing. See the N53NW flight status page for this flight to view local times or setup timezone preferences in your user account.

Time Position Orientation Groundspeed Altitude Reporting Facility
EDT Latitude Longitude Course Direction KTS MPH feet Rate Location/Type
03:02PM 35.3811 -97.6081 170° South 165 190 1,900  Level Fort Worth Center
03:03PM 35.3356 -97.5978 170° South 221 254 4,200 2,580 Climbing Fort Worth Center
03:04PM 35.3186 -97.5839 146° Southeast 239 275 5,200 3,300 Climbing Fort Worth Center
03:05PM 35.2636 -97.5192 136° Southeast 232 267 9,100 3,240 Climbing Fort Worth Center
03:06PM 35.2133 -97.4606 136° Southeast 249 287 12,000 2,340 Climbing Fort Worth Center
03:07PM 35.1567 -97.3933 136° Southeast 282 325 14,000 1,920 Climbing Fort Worth Center
03:08PM 35.0933 -97.3183 136° Southeast 313 360 16,000 1,860 Climbing Fort Worth Center
03:09PM 35.0269 -97.2400 136° Southeast 331 381 17,900 1,440 Climbing Fort Worth Center
03:10PM 34.9436 -97.1419 136° Southeast 348 400 19,000 480 Climbing Fort Worth Center
03:11PM 34.8683 -97.0564 137° Southeast 366 421 19,000  Level Fort Worth Center
03:12PM 34.7939 -96.9739 138° Southeast 364 419 19,000  Level Fort Worth Center
03:13PM 34.7194 -96.8900 137° Southeast 365 420 19,000  Level Fort Worth Center
03:14PM 34.6444 -96.8050 137° Southeast 368 423 19,000  Level Fort Worth Center
03:15PM 34.5694 -96.7208 137° Southeast 368 423 19,000  Level Fort Worth Center
03:16PM 34.4781 -96.6211 138° Southeast 368 423 19,000  Level Fort Worth Center
03:17PM 34.4022 -96.5361 137° Southeast 370 426 19,000 -300 Level Fort Worth Center
03:18PM 34.3258 -96.4522 138° Southeast 372 428 18,400 -900 Descending Fort Worth Center
03:19PM 34.2386 -96.3986 153° Southeast 362 417 17,200 -1,440 Descending Fort Worth Center
03:20PM 34.1458 -96.3767 169° South 343 395 15,500 -1,740 Descending Fort Worth Center
03:21PM 34.0436 -96.3528 169° South 332 382 13,700 -1,560 Descending Fort Worth Center
03:22PM 33.9533 -96.3333 170° South 330 380 12,300 -1,320 Descending Fort Worth Center
03:23PM 33.8681 -96.3125 169° South 317 365 11,000 -1,140 Descending Fort Worth Center
03:24PM 33.7683 -96.2883 169° South 316 364 10,000 -540 Descending Fort Worth Center
03:25PM 33.6844 -96.2953 184° South 302 348 10,000  Level Fort Worth Center
03:26PM 33.5939 -96.3031 184° South 303 349 10,000  Level Fort Worth Center
03:28PM 33.5092 -96.3111 185° South 304 350 10,000  Level Fort Worth Center
03:29PM 33.4211 -96.3225 186° South 298 343 10,000  Level Fort Worth Center
03:30PM 33.3483 -96.3664 207° Southwest 293 337 10,000  Level Fort Worth Center
03:30PM 33.3000 -96.3833 196° South 291 335 10,000 -780 Level Dallas / Fort Worth TRACON
03:31PM 33.2333 -96.4333 212° Southwest 270 311 8,800 -1,320 Descending Dallas / Fort Worth TRACON
03:32PM 33.1667 -96.4833 212° Southwest 259 298 7,300 -1,380 Descending Dallas / Fort Worth TRACON
03:33PM 33.1333 -96.5500 239° Southwest 260 299 6,100 -1,380 Descending Dallas / Fort Worth TRACON
03:34PM 33.1092 -96.5889 233° Southwest 261 300 5,300 -960 Descending Fort Worth Center
03:35PM 33.0739 -96.6503 236° Southwest 219 252 4,600 -660 Descending Fort Worth Center
03:36PM 33.0400 -96.7125 237° Southwest 209 241 4,000 -540 Descending Fort Worth Center
03:37PM 33.0067 -96.7750 238° Southwest 209 241 3,500 -480 Descending Fort Worth Center
03:38PM 32.9764 -96.8319 238° Southwest 204 235 3,000 -300 Descending Fort Worth Center
03:39PM 32.9453 -96.8917 238° Southwest 198 228 2,900 -540 Descending Fort Worth Center
03:40PM 32.9183 -96.9325 232° Southwest 166 191 2,000 -780 Descending Fort Worth Center
03:41PM 32.8850 -96.9019 142° Southeast 152 175 1,400 -600 Descending Fort Worth Center
03:42PM 32.8603 -96.8742 137° Southeast 118 136 800 -360 Descending Fort Worth Center
03:43PM 32.8394 -96.8514 137° Southeast 118 136 700 -120 Descending Fort Worth Center